Location: Unspecified
(0.0000°N, 0.0000°E)
Time: 23:59:43
(UTC+02:00)

ASC 2 Rocket - Visible Passes

Search period start: 20 September 2014 00:00
Search period end: 30 September 2014 00:00
Orbit: 556 x 2349 km, 24.0° (Epoch: 19 September)

Date Brightness Start Highest point End Pass type
(mag) Time Alt. Az. Time Alt. Az. Time Alt. Az.
20 Sep 6.6 05:36:29 10° N 05:38:05 11° N 05:39:48 10° NNE visible
20 Sep 5.6 20:14:46 10° SSW 20:18:43 15° S 20:21:59 10° SE visible
20 Sep 5.8 22:17:13 10° SW 22:18:33 16° SW 22:18:33 16° SW visible
21 Sep 6.5 06:31:43 10° NNW 06:36:31 16° NNE 06:42:23 10° NE visible
21 Sep 4.6 21:11:06 10° SW 21:16:29 28° SSE 21:17:19 26° SSE visible
22 Sep 6.5 07:27:20 10° NNW 07:34:34 27° NNE 07:44:09 10° ENE visible
22 Sep 5.1 22:07:55 10° WSW 22:11:01 29° SW 22:11:01 29° SW visible
23 Sep 6.4 06:23:05 10° NNW 06:27:54 17° NNE 06:33:53 10° ENE visible
23 Sep 4.2 21:01:19 10° SW 21:08:04 43° SSE 21:09:50 33° ESE visible
24 Sep 6.3 07:18:28 10° NNW 07:25:32 31° NNE 07:35:17 10° E visible
24 Sep 4.4 21:58:42 10° WSW 22:03:33 48° WSW 22:03:33 48° WSW visible
25 Sep 6.2 06:14:17 10° NNW 06:19:10 19° NNE 06:25:26 10° ENE visible
25 Sep 4.0 20:51:39 10° WSW 20:59:32 65° SSE 21:02:22 30° E visible
25 Sep 6.5 22:57:03 10° W 22:57:17 11° W 22:57:17 11° W visible
26 Sep 6.5 05:12:40 10° NNE 05:12:59 10° NNE 05:13:53 10° NNE visible
26 Sep 6.0 07:09:38 10° NW 07:16:27 37° NNE 07:26:17 10° E visible
26 Sep 4.2 21:49:36 10° WSW 21:56:06 53° NW 21:56:06 53° NW visible
27 Sep 5.9 06:06:20 13° NNW 06:10:22 22° NNE 06:16:55 10° ENE visible
27 Sep 4.1 20:42:03 10° WSW 20:50:49 88° NNW 20:54:55 21° ENE visible
27 Sep 6.4 22:48:43 10° WNW 22:49:49 13° WNW 22:49:49 13° WNW visible
28 Sep 6.4 05:05:07 12° NNE 05:05:07 12° NNE 05:06:41 10° NE visible
28 Sep 5.5 07:00:52 10° NW 07:07:22 45° NNE 07:17:06 10° E visible
28 Sep 4.7 21:40:36 10° W 21:47:37 39° NNW 21:48:38 36° N visible
29 Sep 5.5 05:58:49 20° N 06:01:31 27° NNE 06:08:17 10° E visible
29 Sep 4.6 20:32:32 10° WSW 20:41:57 66° NNW 20:47:26 14° NE visible
29 Sep 6.3 22:40:35 10° WNW 22:42:20 14° NW 22:42:20 14° NW visible
